User: anonymous
Location: Unspecified
(0.0000°N, 0.0000°E)
Time: 06:12:17
(UTC+02:00)
Language:

Cosmos 1536 - Orbit

View from above orbital plane
View from above orbital plane
View from above satellite
View from above satellite

Ground track
Ground track

The orbit data is extracted from the following two-line orbital elements,

1 14699U 84013A   14105.13759294  .00003390  00000-0  25669-3 0   601
2 14699 082.5301 009.7324 0014688 046.9990 313.2463 15.01929934638887
Epoch (UTC): 15 April 2014 03:18:08
Eccentricity: 0.0014688
inclination: 82.5301°
perigee height: 551 km
apogee height: 571 km
right ascension of ascending node: 9.7324°
argument of perigee: 46.9990°
revolutions per day: 15.01929934
mean anomaly at epoch: 313.2463°
orbit number at epoch: 63888

The dashed part of the orbit path shows where the satellite is in the earth's shadow,  

DLR